This is the latest recevied weather packets stored in our database for station/object WD8INF-9. If no packets are shown the sender has not sent any weather packets the latest 10 day(s).
| Time | Temp. | Humidity | Pressure | Rain* | Wind** | Luminosity | Snow |
|---|---|---|---|---|---|---|---|
| 1777559536 | 11.11° C | - | 1015.4 hPa | 0 mm | - | - | - |
| 1777559235 | 11.11° C | - | 1015.5 hPa | 0 mm | - | - | - |
| 1777558935 | 11.11° C | - | 1015.4 hPa | 0 mm | - | - | - |
| 1777558026 | 9.44° C | - | 1015.2 hPa | 0 mm | - | - | - |
| 1777557725 | 10° C | - | 1015.1 hPa | 0 mm | - | - | - |
| 1777557422 | 10° C | - | 1014.8 hPa | 0 mm | - | - | - |
| 1777557119 | 8.89° C | - | 1014.8 hPa | 0 mm | - | - | - |
| 1777556818 | 8.89° C | - | 1015 hPa | 0 mm | - | - | - |
| 1777556517 | 8.89° C | - | 1014.7 hPa | 0 mm | - | - | - |
| 1777556215 | 8.89° C | - | 1014.8 hPa | 0 mm | - | - | - |
| 1777555914 | 9.44° C | - | 1014.7 hPa | 0 mm | - | - | - |
| 1777555614 | 10° C | - | 1014.5 hPa | 0 mm | - | - | - |
| 1777555314 | 11.11° C | - | 1014.6 hPa | 0 mm | - | - | - |
| 1777555014 | 11.67° C | - | 1014.1 hPa | 0 mm | - | - | - |
| 1777554716 | 11.67° C | - | 1014.5 hPa | 0 mm | - | - | - |
| 1777554410 | 11.67° C | - | 1014.1 hPa | 0 mm | - | - | - |
| 1777554110 | 10° C | - | 1014.1 hPa | 0 mm | - | - | - |
| 1777553809 | 9.44° C | - | 1014.1 hPa | 0 mm | - | - | - |
| 1777553509 | 8.89° C | - | 1014.1 hPa | 0 mm | - | - | - |
| 1777553209 | 9.44° C | - | 1013.8 hPa | 0 mm | - | - | - |
| 1777552908 | 8.89° C | - | 1013.9 hPa | 0 mm | - | - | - |
| 1777552608 | 8.89° C | - | 1013.9 hPa | 0 mm | - | - | - |
| 1777552306 | 8.89° C | - | 1013.7 hPa | 0 mm | - | - | - |
| 1777552006 | 8.89° C | - | 1013.5 hPa | 0 mm | - | - | - |
| 1777551706 | 9.44° C | - | 1013.4 hPa | 0 mm | - | - | - |
* Rain since midnight (hover to see other rain measurements)
** Current wind speed in m/s (hover to see current wind gust speed)